CES91 RJCC-RJAA

Flight info

Callsign CES91
Flight time 1h 25m
Altitude 38000
Route DCT TOBBY Y10 LARCH Y302 JUGEM Y30 SWAMP SWAMPT
Aircraft A319/M-SDE3FGHIRWY/LB1

Departure

Time 2026-02-17 07:38
Airport New Chitose Airport (RJCC)

Arrival

Time 2026-02-17 09:04
Airport Narita International Airport (RJAA)
Time Latitude Longitude Altitude Speed Heading
2026-02-17 07:15 42.78531 141.68155 103 ft 0 kts 313°
2026-02-17 07:23 42.78522 141.68166 104 ft 2 kts 312°
2026-02-17 07:23 42.78513 141.68181 104 ft 2 kts 313°
2026-02-17 07:24 42.78502 141.68196 105 ft 2 kts 313°
2026-02-17 07:24 42.78492 141.68211 105 ft 2 kts 313°
2026-02-17 07:24 42.78482 141.68227 105 ft 2 kts 319°
2026-02-17 07:24 42.78468 141.68236 105 ft 2 kts 349°
2026-02-17 07:25 42.78453 141.68236 105 ft 2 kts 15°
2026-02-17 07:25 42.78439 141.68227 104 ft 2 kts 40°
2026-02-17 07:25 42.78433 141.68219 103 ft 1 kts 56°
2026-02-17 07:25 42.78430 141.68213 103 ft 0 kts 53°
2026-02-17 07:31 42.78431 141.68216 103 ft 0 kts 53°
2026-02-17 07:31 42.78433 141.68219 103 ft 0 kts 53°
2026-02-17 07:32 42.78435 141.68224 103 ft 1 kts 52°
2026-02-17 07:32 42.78448 141.68243 104 ft 4 kts 46°
2026-02-17 07:32 42.78489 141.68292 105 ft 11 kts 39°
2026-02-17 07:32 42.78576 141.68364 103 ft 17 kts 23°
2026-02-17 07:33 42.78705 141.68407 98 ft 18 kts
2026-02-17 07:33 42.78784 141.68445 95 ft 10 kts 49°
2026-02-17 07:33 42.78804 141.68570 87 ft 16 kts 84°
2026-02-17 07:33 42.78814 141.68661 83 ft 4 kts 82°
2026-02-17 07:34 42.78814 141.68663 83 ft 0 kts 82°
2026-02-17 07:36 42.78817 141.68689 82 ft 5 kts 83°
2026-02-17 07:36 42.78823 141.68770 79 ft 6 kts 87°
2026-02-17 07:37 42.78801 141.68817 79 ft 7 kts 166°
2026-02-17 07:37 42.78793 141.68820 79 ft 0 kts 169°
2026-02-17 07:37 42.78787 141.68820 79 ft 4 kts 171°
2026-02-17 07:37 42.78486 141.68870 78 ft 84 kts 173°
2026-02-17 07:38 42.77659 141.69023 96 ft 149 kts 173°
2026-02-17 07:38 42.76596 141.69231 682 ft 162 kts 172°
2026-02-17 07:38 42.75430 141.69499 1405 ft 177 kts 170°
2026-02-17 07:39 42.72911 141.70125 2952 ft 196 kts 178°
2026-02-17 07:39 42.71492 141.70149 3562 ft 216 kts 182°
2026-02-17 07:39 42.69913 141.70142 4248 ft 235 kts 182°
2026-02-17 07:39 42.68228 141.70178 4946 ft 252 kts 181°
2026-02-17 07:40 42.66464 141.70258 5864 ft 260 kts 181°
2026-02-17 07:40 42.64635 141.70366 6854 ft 265 kts 181°
2026-02-17 07:40 42.62810 141.70489 7810 ft 270 kts 181°
2026-02-17 07:40 42.60909 141.70627 8815 ft 274 kts 181°
2026-02-17 07:41 42.58967 141.70770 9799 ft 279 kts 181°
2026-02-17 07:41 42.57016 141.70917 10680 ft 285 kts 181°
2026-02-17 07:41 42.54969 141.71068 11239 ft 303 kts 181°
2026-02-17 07:41 42.52777 141.71234 11893 ft 317 kts 181°
2026-02-17 07:42 42.50534 141.71411 12752 ft 323 kts 181°
2026-02-17 07:42 42.48242 141.71596 13669 ft 325 kts 181°
2026-02-17 07:42 42.45974 141.71776 14550 ft 328 kts 181°
2026-02-17 07:43 42.41318 141.72142 16202 ft 336 kts 181°
2026-02-17 07:43 42.38959 141.72325 16993 ft 340 kts 181°
2026-02-17 07:43 42.36551 141.72514 17776 ft 343 kts 181°
2026-02-17 07:43 42.34158 141.72702 18543 ft 346 kts 181°
2026-02-17 07:44 42.31762 141.72888 19266 ft 349 kts 181°
2026-02-17 07:44 42.29328 141.73077 19950 ft 353 kts 181°
2026-02-17 07:44 42.26844 141.73270 20596 ft 357 kts 181°
2026-02-17 07:44 42.24376 141.73460 21229 ft 362 kts 181°
2026-02-17 07:45 42.21858 141.73657 21862 ft 365 kts 181°
2026-02-17 07:45 42.19284 141.73857 22485 ft 369 kts 181°
2026-02-17 07:45 42.16703 141.74059 23092 ft 373 kts 181°
2026-02-17 07:45 42.14093 141.74262 23699 ft 376 kts 181°
2026-02-17 07:46 42.11439 141.74468 24279 ft 379 kts 181°
2026-02-17 07:46 42.08781 141.74672 24832 ft 383 kts 181°
2026-02-17 07:46 42.06092 141.74881 25361 ft 387 kts 181°
2026-02-17 07:47 42.00666 141.75302 26382 ft 393 kts 181°
2026-02-17 07:47 41.97892 141.75517 26884 ft 396 kts 181°
2026-02-17 07:47 41.95145 141.75729 27347 ft 398 kts 181°
2026-02-17 07:47 41.92303 141.75949 27808 ft 402 kts 182°
2026-02-17 07:48 41.89474 141.76189 28269 ft 405 kts 181°
2026-02-17 07:48 41.86642 141.76454 28733 ft 408 kts 181°
2026-02-17 07:48 41.83748 141.76730 29172 ft 410 kts 181°
2026-02-17 07:48 41.80888 141.77000 29562 ft 413 kts 181°
2026-02-17 07:49 41.78006 141.77272 29964 ft 416 kts 181°
2026-02-17 07:49 41.75078 141.77545 30342 ft 418 kts 181°
2026-02-17 07:49 41.72136 141.77820 30684 ft 421 kts 181°
2026-02-17 07:49 41.69146 141.78098 31048 ft 424 kts 181°
2026-02-17 07:50 41.66151 141.78374 31436 ft 427 kts 181°
2026-02-17 07:50 41.63138 141.78654 31820 ft 428 kts 182°
2026-02-17 07:50 41.60140 141.78934 32275 ft 427 kts 182°
2026-02-17 07:51 41.54179 141.79454 33133 ft 423 kts 184°
2026-02-17 07:51 41.51214 141.79498 33500 ft 420 kts 187°
2026-02-17 07:51 41.48270 141.79320 33812 ft 417 kts 191°
2026-02-17 07:51 41.45387 141.78926 34113 ft 415 kts 194°
2026-02-17 07:52 41.42497 141.78383 34444 ft 414 kts 194°
2026-02-17 07:52 41.39578 141.77834 34760 ft 414 kts 195°
2026-02-17 07:52 41.36720 141.77300 35084 ft 413 kts 195°
2026-02-17 07:52 41.33857 141.76765 35357 ft 412 kts 195°
2026-02-17 07:53 41.30962 141.76227 35629 ft 412 kts 195°
2026-02-17 07:53 41.28091 141.75690 35844 ft 412 kts 195°
2026-02-17 07:53 41.25224 141.75156 36082 ft 411 kts 195°
2026-02-17 07:53 41.22360 141.74622 36322 ft 410 kts 195°
2026-02-17 07:54 41.16635 141.73553 36683 ft 412 kts 196°
2026-02-17 07:54 41.13800 141.73027 36840 ft 413 kts 196°
2026-02-17 07:55 41.08049 141.71957 37245 ft 414 kts 196°
2026-02-17 07:55 41.02265 141.70885 37491 ft 416 kts 196°
2026-02-17 07:55 40.99357 141.70349 37609 ft 416 kts 197°
2026-02-17 07:56 40.96486 141.69818 37782 ft 417 kts 196°
2026-02-17 07:56 40.93554 141.69275 37886 ft 417 kts 197°
2026-02-17 07:56 40.90628 141.68735 38001 ft 418 kts 197°
2026-02-17 07:56 40.87716 141.68199 38103 ft 419 kts 197°
2026-02-17 07:57 40.84793 141.67658 38107 ft 420 kts 197°
2026-02-17 07:57 40.78927 141.66577 38119 ft 420 kts 197°
2026-02-17 07:58 40.73080 141.65505 38090 ft 423 kts 197°
2026-02-17 07:58 40.67136 141.64407 38137 ft 431 kts 197°
2026-02-17 07:59 40.58074 141.62747 38123 ft 442 kts 196°
2026-02-17 07:59 40.51954 141.61633 38103 ft 443 kts 196°
2026-02-17 08:00 40.45795 141.60518 38121 ft 443 kts 196°
2026-02-17 08:00 40.39707 141.59413 38072 ft 444 kts 197°
2026-02-17 08:01 40.33529 141.58290 38111 ft 443 kts 196°
2026-02-17 08:01 40.27420 141.57185 38054 ft 444 kts 197°
2026-02-17 08:02 40.21294 141.56079 38074 ft 444 kts 197°
2026-02-17 08:03 40.12107 141.54422 38039 ft 442 kts 197°
2026-02-17 08:03 40.06022 141.53325 38063 ft 442 kts 197°
2026-02-17 08:04 39.99891 141.52220 38045 ft 442 kts 197°
2026-02-17 08:04 39.93718 141.51112 38015 ft 443 kts 197°
2026-02-17 08:05 39.87593 141.50020 38021 ft 443 kts 197°
2026-02-17 08:05 39.81479 141.48927 38037 ft 442 kts 197°
2026-02-17 08:06 39.75340 141.47833 37977 ft 443 kts 197°
2026-02-17 08:06 39.69219 141.46742 38005 ft 442 kts 197°
2026-02-17 08:07 39.60013 141.45103 38021 ft 442 kts 197°
2026-02-17 08:07 39.53883 141.44016 38036 ft 442 kts 197°
2026-02-17 08:08 39.47814 141.42920 38078 ft 441 kts 197°
2026-02-17 08:08 39.42651 141.42033 38143 ft 444 kts 197°
2026-02-17 08:09 39.36238 141.40926 38095 ft 443 kts 197°
2026-02-17 08:09 39.29823 141.39798 38081 ft 443 kts 197°
2026-02-17 08:10 39.23403 141.38676 38050 ft 442 kts 198°
2026-02-17 08:11 39.13793 141.36992 38080 ft 442 kts 198°
2026-02-17 08:11 39.07416 141.35879 38069 ft 443 kts 198°
2026-02-17 08:12 39.01030 141.34763 38111 ft 442 kts 197°
2026-02-17 08:12 38.95741 141.33844 38091 ft 443 kts 197°
2026-02-17 08:13 38.89325 141.32727 38100 ft 444 kts 197°
2026-02-17 08:13 38.81862 141.31433 38088 ft 443 kts 197°
2026-02-17 08:14 38.75454 141.30325 38108 ft 443 kts 197°
2026-02-17 08:14 38.69141 141.29236 38119 ft 443 kts 198°
2026-02-17 08:15 38.60732 141.27783 38118 ft 443 kts 198°
2026-02-17 08:15 38.53309 141.26508 38139 ft 443 kts 198°
2026-02-17 08:16 38.47943 141.25586 38136 ft 443 kts 198°
2026-02-17 08:16 38.40563 141.24319 38138 ft 442 kts 198°
2026-02-17 08:17 38.34171 141.23228 38127 ft 443 kts 198°
2026-02-17 08:17 38.27716 141.22124 38121 ft 443 kts 198°
2026-02-17 08:18 38.21302 141.21031 38142 ft 442 kts 199°
2026-02-17 08:19 38.11535 141.19363 38143 ft 441 kts 198°
2026-02-17 08:19 38.05045 141.18257 38156 ft 442 kts 198°
2026-02-17 08:20 37.99813 141.17371 38128 ft 442 kts 198°
2026-02-17 08:20 37.92578 141.15768 38132 ft 431 kts 204°
2026-02-17 08:21 37.87643 141.14015 38154 ft 425 kts 208°
2026-02-17 08:21 37.80661 141.11232 38141 ft 427 kts 208°
2026-02-17 08:22 37.74654 141.08862 38134 ft 424 kts 208°
2026-02-17 08:22 37.68704 141.06514 38143 ft 422 kts 208°
2026-02-17 08:23 37.59832 141.03014 38156 ft 424 kts 209°
2026-02-17 08:23 37.54862 141.01056 38133 ft 425 kts 209°
2026-02-17 08:24 37.47936 140.98337 38145 ft 423 kts 209°
2026-02-17 08:24 37.42065 140.96033 38148 ft 423 kts 209°
2026-02-17 08:25 37.37130 140.94112 38132 ft 422 kts 209°
2026-02-17 08:25 37.31210 140.91811 38126 ft 422 kts 209°
2026-02-17 08:26 37.24323 140.89139 38118 ft 421 kts 209°
2026-02-17 08:27 37.15566 140.85747 37831 ft 419 kts 210°
2026-02-17 08:27 37.12625 140.84607 37601 ft 417 kts 210°
2026-02-17 08:27 37.09744 140.83495 37445 ft 416 kts 210°
2026-02-17 08:27 37.06858 140.82375 37215 ft 419 kts 210°
2026-02-17 08:28 37.03927 140.81239 37045 ft 418 kts 210°
2026-02-17 08:28 37.01024 140.80121 36823 ft 419 kts 209°
2026-02-17 08:28 36.98152 140.79018 36606 ft 417 kts 210°
2026-02-17 08:28 36.95236 140.77899 36252 ft 414 kts 210°
2026-02-17 08:29 36.92353 140.76798 35734 ft 409 kts 210°
2026-02-17 08:29 36.89535 140.75716 35027 ft 409 kts 210°
2026-02-17 08:29 36.86735 140.74634 34258 ft 411 kts 210°
2026-02-17 08:29 36.83908 140.73544 33602 ft 413 kts 210°
2026-02-17 08:30 36.81059 140.72443 32921 ft 415 kts 209°
2026-02-17 08:30 36.78175 140.71333 32269 ft 415 kts 208°
2026-02-17 08:30 36.75337 140.70245 31573 ft 416 kts 208°
2026-02-17 08:31 36.70599 140.68436 30364 ft 410 kts 207°
2026-02-17 08:31 36.66908 140.67036 29503 ft 401 kts 207°
2026-02-17 08:31 36.64148 140.65990 28963 ft 393 kts 207°
2026-02-17 08:31 36.61442 140.64960 28408 ft 387 kts 207°
2026-02-17 08:32 36.58865 140.63977 27883 ft 381 kts 207°
2026-02-17 08:32 36.56324 140.63008 27346 ft 374 kts 207°
2026-02-17 08:32 36.53798 140.62048 26851 ft 369 kts 207°
2026-02-17 08:32 36.51298 140.61096 26394 ft 366 kts 207°
2026-02-17 08:33 36.48829 140.60155 25899 ft 363 kts 207°
2026-02-17 08:33 36.46399 140.59230 25403 ft 359 kts 207°
2026-02-17 08:33 36.44014 140.58324 24906 ft 356 kts 207°
2026-02-17 08:33 36.41606 140.57410 24411 ft 353 kts 207°
2026-02-17 08:34 36.39218 140.56503 23926 ft 350 kts 206°
2026-02-17 08:34 36.36882 140.55617 23478 ft 346 kts 206°
2026-02-17 08:34 36.34422 140.55078 22994 ft 360 kts 190°
2026-02-17 08:35 36.30251 140.56526 22228 ft 389 kts 157°
2026-02-17 08:35 36.27503 140.59616 21635 ft 401 kts 140°
2026-02-17 08:35 36.25581 140.62259 21155 ft 399 kts 139°
2026-02-17 08:35 36.23690 140.64864 20675 ft 397 kts 139°
2026-02-17 08:36 36.21763 140.67468 20194 ft 394 kts 140°
2026-02-17 08:36 36.20983 140.68510 20009 ft 393 kts 140°
2026-02-17 08:36 36.19009 140.71133 19532 ft 391 kts 140°
2026-02-17 08:36 36.17020 140.73764 19035 ft 388 kts 140°
2026-02-17 08:37 36.15062 140.76356 18558 ft 385 kts 140°
2026-02-17 08:37 36.13017 140.78737 18075 ft 376 kts 150°
2026-02-17 08:37 36.10708 140.80458 17601 ft 363 kts 163°
2026-02-17 08:37 36.08218 140.81650 17138 ft 356 kts 168°
2026-02-17 08:38 36.05771 140.82697 16685 ft 353 kts 168°
2026-02-17 08:38 36.03264 140.83763 16177 ft 352 kts 168°
2026-02-17 08:38 36.00776 140.84836 15691 ft 351 kts 167°
2026-02-17 08:39 35.95939 140.86952 14726 ft 348 kts 166°
2026-02-17 08:39 35.93603 140.87984 14256 ft 346 kts 166°
2026-02-17 08:39 35.91302 140.88998 13802 ft 345 kts 166°
2026-02-17 08:39 35.89035 140.89999 13366 ft 343 kts 166°
2026-02-17 08:40 35.87536 140.90660 13058 ft 341 kts 166°
2026-02-17 08:40 35.84508 140.91995 12449 ft 338 kts 166°
2026-02-17 08:40 35.82286 140.92972 12008 ft 335 kts 166°
2026-02-17 08:40 35.80043 140.93957 11556 ft 333 kts 166°
2026-02-17 08:41 35.77840 140.94925 11104 ft 330 kts 165°
2026-02-17 08:41 35.76355 140.95577 10809 ft 328 kts 165°
2026-02-17 08:41 35.73457 140.96854 10550 ft 311 kts 165°
2026-02-17 08:41 35.71339 140.97789 10389 ft 297 kts 165°
2026-02-17 08:42 35.69317 140.98679 10252 ft 285 kts 165°
2026-02-17 08:42 35.67358 140.99538 10126 ft 273 kts 166°
2026-02-17 08:42 35.65501 141.00352 10016 ft 261 kts 166°
2026-02-17 08:43 35.62000 141.01886 9990 ft 239 kts 166°
2026-02-17 08:43 35.60355 141.02602 9986 ft 235 kts 167°
2026-02-17 08:43 35.58698 141.03322 9985 ft 234 kts 167°
2026-02-17 08:43 35.57085 141.04024 9981 ft 232 kts 167°
2026-02-17 08:44 35.55463 141.04730 9982 ft 231 kts 167°
2026-02-17 08:44 35.53838 141.05362 9987 ft 229 kts 172°
2026-02-17 08:44 35.52172 141.05826 9982 ft 228 kts 174°
2026-02-17 08:44 35.50549 141.06239 9985 ft 228 kts 174°
2026-02-17 08:45 35.48915 141.06656 9983 ft 228 kts 174°
2026-02-17 08:45 35.47824 141.06935 9981 ft 228 kts 174°
2026-02-17 08:45 35.45704 141.07478 9984 ft 228 kts 174°
2026-02-17 08:45 35.44047 141.07906 9987 ft 228 kts 174°
2026-02-17 08:46 35.42424 141.08311 9987 ft 226 kts 178°
2026-02-17 08:46 35.40764 141.08414 9980 ft 220 kts 190°
2026-02-17 08:46 35.39162 141.08136 9982 ft 218 kts 196°
2026-02-17 08:47 35.35978 141.07379 9978 ft 218 kts 197°
2026-02-17 08:47 35.34449 141.07016 9979 ft 218 kts 197°
2026-02-17 08:47 35.32908 141.06644 9983 ft 217 kts 200°
2026-02-17 08:47 35.31395 141.06029 9983 ft 213 kts 209°
2026-02-17 08:48 35.30002 141.05145 9978 ft 211 kts 214°
2026-02-17 08:48 35.28650 141.04196 9976 ft 211 kts 215°
2026-02-17 08:48 35.27287 141.03233 9979 ft 211 kts 214°
2026-02-17 08:48 35.25914 141.02264 9977 ft 211 kts 214°
2026-02-17 08:49 35.24554 141.01305 9976 ft 210 kts 216°
2026-02-17 08:49 35.23319 141.00157 9981 ft 207 kts 227°
2026-02-17 08:49 35.22298 140.98759 9978 ft 205 kts 234°
2026-02-17 08:49 35.21351 140.97278 9973 ft 205 kts 235°
2026-02-17 08:50 35.20419 140.95804 9973 ft 205 kts 235°
2026-02-17 08:50 35.19493 140.94338 9974 ft 205 kts 235°
2026-02-17 08:50 35.18558 140.92864 9976 ft 206 kts 235°
2026-02-17 08:51 35.17380 140.89566 9982 ft 203 kts 272°
2026-02-17 08:51 35.17753 140.87837 9988 ft 214 kts 294°
2026-02-17 08:51 35.18790 140.86362 9990 ft 237 kts 320°
2026-02-17 08:51 35.20316 140.85397 9990 ft 243 kts 329°
2026-02-17 08:52 35.21907 140.84497 9810 ft 244 kts 329°
2026-02-17 08:52 35.23562 140.83559 9434 ft 245 kts 330°
2026-02-17 08:52 35.25200 140.82628 9095 ft 243 kts 330°
2026-02-17 08:52 35.26245 140.82034 8893 ft 241 kts 330°
2026-02-17 08:53 35.28332 140.80849 8494 ft 239 kts 330°
2026-02-17 08:53 35.29892 140.79959 8189 ft 237 kts 330°
2026-02-17 08:53 35.31436 140.79080 7897 ft 235 kts 330°
2026-02-17 08:53 35.32964 140.78209 7614 ft 234 kts 330°
2026-02-17 08:54 35.34517 140.77324 7337 ft 232 kts 330°
2026-02-17 08:54 35.36062 140.76442 7046 ft 231 kts 331°
2026-02-17 08:54 35.37589 140.75569 6764 ft 230 kts 330°
2026-02-17 08:55 35.40627 140.73830 6211 ft 228 kts 331°
2026-02-17 08:55 35.41554 140.73137 6007 ft 225 kts 314°
2026-02-17 08:55 35.42452 140.71503 5685 ft 220 kts 289°
2026-02-17 08:55 35.42994 140.69629 5331 ft 222 kts 287°
2026-02-17 08:56 35.43702 140.67097 4842 ft 227 kts 289°
2026-02-17 08:56 35.44262 140.65155 4486 ft 229 kts 290°
2026-02-17 08:56 35.45010 140.63319 4125 ft 230 kts 309°
2026-02-17 08:56 35.46180 140.61787 3998 ft 229 kts 319°
2026-02-17 08:57 35.47461 140.60359 4008 ft 231 kts 320°
2026-02-17 08:57 35.48744 140.58939 3994 ft 232 kts 320°
2026-02-17 08:57 35.50013 140.57512 3999 ft 232 kts 319°
2026-02-17 08:57 35.51288 140.56062 3992 ft 233 kts 319°
2026-02-17 08:58 35.52585 140.54764 3991 ft 232 kts 328°
2026-02-17 08:58 35.54033 140.53653 3993 ft 231 kts 332°
2026-02-17 08:58 35.55451 140.52650 3981 ft 218 kts 333°
2026-02-17 08:59 35.58057 140.50838 3870 ft 195 kts 333°
2026-02-17 08:59 35.59262 140.49979 3685 ft 188 kts 333°
2026-02-17 08:59 35.60416 140.49144 3435 ft 178 kts 334°
2026-02-17 08:59 35.61496 140.48360 3152 ft 170 kts 334°
2026-02-17 09:00 35.62549 140.47594 2879 ft 161 kts 334°
2026-02-17 09:00 35.63518 140.46889 2630 ft 153 kts 335°
2026-02-17 09:00 35.64446 140.46216 2399 ft 145 kts 334°
2026-02-17 09:00 35.65324 140.45578 2188 ft 134 kts 335°
2026-02-17 09:01 35.66144 140.44983 2000 ft 129 kts 336°
2026-02-17 09:01 35.66936 140.44412 1843 ft 128 kts 336°
2026-02-17 09:01 35.67721 140.43845 1673 ft 127 kts 336°
2026-02-17 09:01 35.68509 140.43275 1497 ft 127 kts 335°
2026-02-17 09:02 35.69310 140.42696 1333 ft 126 kts 335°
2026-02-17 09:02 35.70074 140.42143 1146 ft 123 kts 335°
2026-02-17 09:02 35.70839 140.41591 962 ft 122 kts 334°
2026-02-17 09:03 35.72368 140.40489 626 ft 122 kts 333°
2026-02-17 09:03 35.73117 140.39938 450 ft 122 kts 332°
2026-02-17 09:03 35.73879 140.39386 301 ft 121 kts 332°
2026-02-17 09:03 35.74614 140.38853 138 ft 114 kts 331°
2026-02-17 09:04 35.75204 140.38448 147 ft 68 kts 328°
2026-02-17 09:04 35.75505 140.38232 144 ft 38 kts 334°
2026-02-17 09:04 35.75764 140.38139 142 ft 31 kts 351°
2026-02-17 09:04 35.75923 140.38091 142 ft 15 kts 354°
2026-02-17 09:05 35.76026 140.38103 143 ft 14 kts 352°
2026-02-17 09:05 35.76123 140.38037 143 ft 15 kts 330°
2026-02-17 09:05 35.76194 140.38010 143 ft 9 kts 31°
2026-02-17 09:05 35.76237 140.38084 143 ft 11 kts 58°
2026-02-17 09:06 35.76285 140.38185 141 ft 14 kts 63°
2026-02-17 09:06 35.76314 140.38246 144 ft 5 kts 59°
2026-02-17 09:06 35.76331 140.38281 145 ft 0 kts 60°
2026-02-17 09:07 35.76333 140.38286 145 ft 0 kts 59°